Bartow, FL

8:13 AM EDT on April 25, 2017 (GMT -0400)
Bartow Municipal

Weather History for KBOW - August, 2012

Change the Weather History Date:

Thursday, August 9, 2012

  Actual Average Record
Temperature  
Mean Temperature 81 °F -  
Max Temperature 93 °F 92 °F 98 °F (1936)
Min Temperature 69 °F 72 °F 67 °F (1950)
Cooling Degree Days 16    
Growing Degree Days 31 (Base 50)    
Moisture  
Dew Point 70 °F    
Average Humidity 77    
Maximum Humidity 100    
Minimum Humidity 43    
Precipitation  
Precipitation 0.18 in - - ()
Sea Level Pressure  
Sea Level Pressure 30.01 in    
Wind  
Wind Speed 2 mph (SE)    
Max Wind Speed 14 mph    
Max Gust Speed -    
Visibility 10 miles    
Events Rain , Thunderstorm    
Averages and records for this station are not official NWS values.
T = Trace of Precipitation, MM = Missing Value Source: NWS Daily Summary

Daily Weather History Graph

Daily Weather History Graph

Search for Another Location

Airport or City:

Trip Planner

Search our weather history database for the weather conditions in past years. The results will help you decide how hot, cold, wet, or windy it might be!

Date:

Astronomy

Aug. 09, 2012 Rise Set
Actual Time 6:54 AM EDT 8:10 PM EDT
Civil Twilight 6:29 AM EDT 8:35 PM EDT
Nautical Twilight 5:59 AM EDT 9:04 PM EDT
Astronomical Twilight 5:29 AM EDT 9:35 PM EDT
Moon 12:07 AM EDT (8/9) 1:48 PM EDT (8/9)
Length of Visible Light 14h 05m
Length of Day
13h 15m
Waning Gibbous, 51% of the Moon is Illuminated
Aug 9
Waning Gibbous
Aug 9
Last Quarter
Aug 17
New
Aug 24
First Quarter
Aug 31
Full

Hourly Weather History & Observations

Time (EDT) Temp. Heat Index Dew Point Humidity Pressure Visibility Wind Dir Wind Speed Gust Speed Precip Events Conditions
12:15 AM 75.2 °F - 71.6 °F 89% 30.05 in 9.0 mi Calm Calm - N/A   Scattered Clouds
12:35 AM 75.2 °F - 71.6 °F 89% 30.04 in 10.0 mi Calm Calm - N/A   Partly Cloudy
12:55 AM 75.2 °F - 71.6 °F 89% 30.04 in 10.0 mi East 3.5 mph - N/A   Clear
1:15 AM 73.4 °F - 69.8 °F 88% 30.04 in 10.0 mi ESE 5.8 mph - N/A   Partly Cloudy
1:35 AM 73.4 °F - 68.0 °F 83% 30.04 in 10.0 mi Calm Calm - N/A   Mostly Cloudy
1:55 AM 73.4 °F - 68.0 °F 83% 30.04 in 10.0 mi Calm Calm - N/A   Mostly Cloudy
2:15 AM 73.4 °F - 69.8 °F 88% 30.03 in 10.0 mi Calm Calm - N/A   Scattered Clouds
2:35 AM 73.4 °F - 69.8 °F 88% 30.02 in 10.0 mi Calm Calm - N/A   Partly Cloudy
2:55 AM 73.4 °F - 69.8 °F 88% 30.01 in 10.0 mi Calm Calm - N/A   Partly Cloudy
3:15 AM 73.4 °F - 69.8 °F 88% 30.01 in 10.0 mi Calm Calm - N/A   Clear
3:35 AM 73.4 °F - 69.8 °F 88% 30.01 in 10.0 mi Calm Calm - N/A   Clear
3:55 AM 73.4 °F - 69.8 °F 88% 30.01 in 10.0 mi Calm Calm - N/A   Partly Cloudy
4:15 AM 71.6 °F - 69.8 °F 94% 30.00 in 10.0 mi Calm Calm - N/A   Partly Cloudy
4:35 AM 71.6 °F - 69.8 °F 94% 30.01 in 10.0 mi Calm Calm - N/A   Clear
4:55 AM 71.6 °F - 69.8 °F 94% 30.01 in 10.0 mi Calm Calm - N/A   Partly Cloudy
5:15 AM 71.6 °F - 69.8 °F 94% 30.01 in 10.0 mi Calm Calm - N/A   Clear
5:35 AM 71.6 °F - 69.8 °F 94% 30.02 in 10.0 mi Calm Calm - N/A   Partly Cloudy
5:55 AM 71.6 °F - 69.8 °F 94% 30.03 in 10.0 mi Calm Calm - N/A   Partly Cloudy
6:15 AM 71.6 °F - 69.8 °F 94% 30.03 in 10.0 mi Calm Calm - N/A   Partly Cloudy
6:35 AM 71.6 °F - 69.8 °F 94% 30.04 in 10.0 mi Calm Calm - N/A   Partly Cloudy
6:55 AM 71.6 °F - 69.8 °F 94% 30.04 in 10.0 mi Calm Calm - N/A   Partly Cloudy
7:15 AM 69.8 °F - 69.8 °F 100% 30.04 in 9.0 mi Calm Calm - N/A   Clear
7:30 AM 71.6 °F - 71.6 °F 100% 30.04 in 10.0 mi Calm Calm - N/A   Scattered Clouds
7:51 AM 73.4 °F - 73.4 °F 100% 30.05 in - ESE 3.5 mph - N/A   Scattered Clouds
8:52 AM 78.8 °F - 73.4 °F 83% 30.05 in 12.0 mi ESE 4.6 mph - N/A   Scattered Clouds
9:51 AM 82.4 °F 88.2 °F 73.4 °F 74% 30.06 in 12.0 mi SE 4.6 mph - N/A   Scattered Clouds
10:51 AM 86.0 °F 91.8 °F 71.6 °F 62% 30.06 in 15.0 mi SSE 6.9 mph - N/A   Mostly Cloudy
11:50 AM 87.8 °F 92.6 °F 69.8 °F 55% 30.05 in 15.0 mi East 4.6 mph - N/A   Mostly Cloudy
12:53 PM 89.6 °F 94.7 °F 69.8 °F 52% 30.02 in 15.0 mi SE 5.8 mph - N/A   Mostly Cloudy
1:55 PM 89.6 °F 94.7 °F 69.8 °F 52% 30.01 in 15.0 mi SSE 4.6 mph - N/A   Mostly Cloudy
2:53 PM 91.4 °F 95.4 °F 68.0 °F 46% 29.98 in 15.0 mi SE 8.1 mph - N/A   Mostly Cloudy
3:50 PM 93.2 °F 97.7 °F 68.0 °F 44% 29.95 in 15.0 mi South 6.9 mph - N/A   Mostly Cloudy
4:54 PM 93.2 °F 97.7 °F 68.0 °F 44% 29.94 in 15.0 mi South 4.6 mph - N/A   Mostly Cloudy
4:55 PM 93.2 °F 97.7 °F 68.0 °F 44% 29.94 in 8.0 mi South 4.6 mph - N/A   Scattered Clouds
5:15 PM 91.4 °F 94.0 °F 66.2 °F 43% 29.94 in 9.0 mi WSW 6.9 mph - N/A   Scattered Clouds
5:35 PM 93.2 °F 97.7 °F 68.0 °F 44% 29.94 in 9.0 mi West 5.8 mph - N/A   Partly Cloudy
5:55 PM 91.4 °F 94.0 °F 66.2 °F 43% 29.94 in 9.0 mi Calm Calm - N/A   Scattered Clouds
6:15 PM 91.4 °F 96.8 °F 69.8 °F 49% 29.94 in 9.0 mi North 8.1 mph - N/A   Scattered Clouds
6:35 PM 91.4 °F 95.4 °F 68.0 °F 46% 29.93 in 9.0 mi North 5.8 mph - N/A   Scattered Clouds
6:55 PM 91.4 °F 95.4 °F 68.0 °F 46% 29.94 in 8.0 mi North 4.6 mph - N/A   Scattered Clouds
7:15 PM 84.2 °F 88.4 °F 69.8 °F 62% 29.95 in 9.0 mi East 13.8 mph - N/A Thunderstorm Thunderstorm
7:35 PM 82.4 °F 84.6 °F 66.2 °F 58% 29.96 in 10.0 mi ESE 8.1 mph - N/A   Mostly Cloudy
7:55 PM 80.6 °F 83.9 °F 69.8 °F 70% 29.96 in 10.0 mi ESE 11.5 mph - N/A   Scattered Clouds
8:15 PM 78.8 °F - 69.8 °F 74% 29.97 in 9.0 mi ESE 5.8 mph - N/A   Mostly Cloudy
8:35 PM 80.6 °F 83.9 °F 69.8 °F 70% 29.98 in 10.0 mi ESE 8.1 mph - N/A   Mostly Cloudy
8:55 PM 78.8 °F - 71.6 °F 78% 30.00 in 8.0 mi SE 8.1 mph - N/A Thunderstorm Thunderstorm
9:35 PM 78.8 °F - 71.6 °F 78% 30.02 in 10.0 mi Calm Calm - 0.02 in   Mostly Cloudy
9:55 PM 80.6 °F 84.6 °F 71.6 °F 74% 30.03 in 10.0 mi NNW 3.5 mph - 0.02 in Thunderstorm Mostly Cloudy
10:35 PM 77.0 °F - 77.0 °F 100% 30.02 in 10.0 mi ENE 4.6 mph - N/A Thunderstorm Scattered Clouds
10:55 PM 77.0 °F - 75.2 °F 94% 30.03 in 10.0 mi ESE 4.6 mph - N/A Thunderstorm Thunderstorm
11:15 PM 78.8 °F - 73.4 °F 83% 30.04 in 9.0 mi SSW 8.1 mph - N/A Thunderstorm Thunderstorm
11:35 PM 77.0 °F - 75.2 °F 94% 30.04 in 1.2 mi West 3.5 mph - 0.10 in Rain , Thunderstorm Heavy Thunderstorms and Rain
11:55 PM 75.2 °F - 75.2 °F 100% 30.03 in 8.0 mi Calm Calm - 0.16 in Rain Light Rain